Retour au catalogue

H-2A R/B

ActifPO
NORAD 43682·ROCKET BODY·🇯🇵 Japan

Lancé Oct 29, 2018 depuis Tanegashima Space Center

Loading…

Prochains Passages (prochaines 24 heures)

TLE

FraisSource: Space-Track

Époque: Sep 14, 2026, 22:04 UTC

1 43682U 18084L   26257.91992714  .00023967  00000-0  44936-3 0  9994
2 43682  98.8422 156.5999 0022845  83.6696 276.7151 15.48385328434996

Suivez H-2A R/B en temps réel avec AllMySat

Download on the App Store